Lapse_Rate
5.0 4.6 4.3 3.9 3.5 3.3 3.2 3.2 2.9 2.9 2.8 2.1 1.9 2.1 2.1 1.9 1.7 1.6 1.0 0.9 0.7 0.9 0.6 0.6 0.9 1.0 4.5 8.3 8.2 5.7 3.8 5.1 8.0 9.8 9.1 8.6 7.9 7.5 6.5 6.8 7.0 6.5 6.6 7.2 7.5 7.5 7.5
3.5 3.5 3.4 3.2 2.9 3.1 3.1 2.8 2.8 2.8 2.6 2.3 2.1 1.8 1.8 1.7 1.7 1.5 1.0 0.9 0.7 1.1 0.7 0.8 1.4 0.8 8.1 7.1 9.1 8.0 7.8 9.6 9.8 9.5 9.0 8.9 8.1 8.3 7.4 7.0 6.6 7.1 7.1 7.1 7.4 7.3 7.4
3.5 3.4 3.1 3.3 3.2 3.9 2.8 3.0 3.2 3.1 2.9 2.5 2.1 1.8 1.7 1.8 1.3 1.3 1.3 1.2 1.1 1.2 1.0 1.3 1.4 5.2 8.6 8.1 9.5 9.7 9.5 9.7 9.9 9.5 8.7 9.1 9.1 8.1 7.8 6.6 7.7 7.3 6.5 6.5 6.8 7.1 6.6
5.2 5.2 4.8 4.9 5.4 5.2 5.3 5.0 5.0 4.2 3.6 2.9 2.5 2.2 2.0 1.7 1.6 1.3 1.3 1.4 1.6 1.5 1.3 1.6 1.5 7.0 7.9 9.4 8.7 9.4 10.0 9.6 9.9 9.8 9.3 9.4 9.3 8.4 7.7 7.9 7.2 6.5 6.5 6.5 6.5 6.7 7.0
5.5 5.6 5.4 5.4 5.5 5.0 5.4 5.3 5.0 4.8 4.3 3.6 2.9 2.7 2.5 2.0 1.8 1.5 1.4 1.6 1.7 1.8 1.5 1.8 5.9 8.7 7.5 6.5 8.9 9.7 9.9 9.0 9.3 9.5 9.5 9.4 9.0 7.8 7.6 6.5 6.5 6.5 6.5 6.5 6.5 6.8 6.5
5.0 5.5 5.8 5.6 5.8 5.5 5.8 5.8 5.7 5.8 5.2 4.0 3.3 3.0 2.9 2.7 2.1 1.9 2.0 2.0 2.3 1.5 2.7 6.4 9.4 7.6 8.3 7.9 9.1 9.4 9.9 9.5 8.7 8.7 8.3 8.1 7.8 6.5 6.5 6.5 6.5 6.5 6.5 6.5 6.5 6.5 6.5
6.0 5.7 5.8 5.4 5.5 5.5 5.5 5.8 5.7 6.1 5.8 5.0 4.1 3.3 3.1 2.9 2.5 2.4 3.1 7.3 8.4 8.2 8.7 7.8 7.8 7.8 8.2 9.1 9.4 9.0 9.5 9.0 8.7 8.1 6.5 7.3 6.5 6.5 6.5 6.5 6.5 6.5 6.5 6.5 6.5 6.5 6.5
6.1 6.2 6.3 6.2 6.1 6.1 6.0 5.9 5.8 6.1 6.1 6.1 5.4 4.4 3.6 3.0 2.5 2.5 4.6 8.8 8.6 8.7 7.2 8.7 8.6 8.6 9.0 9.1 7.7 8.5 9.4 7.7 7.3 6.5 6.7 6.5 6.5 6.5 6.5 6.5 6.5 6.5 6.5 6.5 6.5 6.5 6.5
6.0 6.0 6.1 6.4 6.3 6.2 6.4 6.7 6.6 6.5 6.6 6.2 6.2 5.7 4.7 3.4 3.3 4.5 9.2 9.1 9.2 9.7 7.3 7.6 8.4 8.2 8.3 8.8 7.6 7.8 8.7 8.1 6.8 6.5 6.5 6.5 6.5 6.6 6.5 6.5 6.5 6.5 6.5 6.5 6.5 6.5 6.5
6.0 6.4 6.1 6.5 6.7 6.4 6.8 6.8 6.5 7.2 7.4 6.5 6.1 6.1 5.3 4.6 3.9 9.5 8.9 9.8 9.3 8.3 6.5 6.5 6.9 7.9 8.4 8.4 7.0 8.8 8.8 8.0 6.7 6.5 6.5 6.5 6.6 6.5 6.5 6.5 6.5 6.5 6.5 6.5 6.5 6.5 6.5
7.2 7.0 6.8 6.6 6.6 6.6 6.8 6.8 6.9 7.2 7.0 6.9 6.8 6.8 5.3 4.5 9.4 8.9 9.2 9.5 7.9 8.2 6.5 6.5 6.8 9.1 8.5 7.4 7.5 7.6 9.0 8.0 6.5 6.5 6.5 6.5 6.5 6.5 6.5 6.5 6.5 6.5 6.5 6.5 6.5 6.5 6.5
7.1 6.7 6.9 7.2 6.9 6.8 6.8 7.0 7.1 7.1 6.9 6.6 6.7 6.3 6.0 7.3 8.8 9.2 7.7 8.7 9.0 6.5 6.5 6.5 7.0 6.6 6.6 7.2 7.1 7.8 7.7 8.2 7.9 6.5 6.5 6.5 7.1 6.5 6.5 6.5 6.5 6.5 6.5 6.5 6.5 6.5 6.5
7.2 7.3 7.4 7.4 7.1 7.0 6.8 6.9 7.1 7.0 6.9 6.8 6.7 6.1 6.2 9.4 8.8 8.5 7.4 8.4 6.5 6.5 6.5 6.5 6.5 6.5 6.5 6.5 6.5 6.5 6.5 6.5 6.5 6.5 6.5 6.5 6.5 6.5 6.8 6.5 6.5 6.5 6.5 6.5 6.5 6.5 6.5
6.9 7.3 7.4 7.4 7.4 7.3 7.0 7.1 7.0 6.7 6.5 7.1 6.9 6.5 6.8 9.6 9.5 8.3 9.0 6.6 6.5 6.5 6.5 6.5 6.5 6.5 6.5 6.5 6.5 6.5 6.5 6.5 6.5 6.5 6.5 6.5 6.5 6.5 6.5 6.5 6.5 6.5 6.5 6.5 6.5 6.5 6.5
7.0 6.9 7.0 7.2 7.2 7.3 7.3 7.2 7.1 6.6 6.7 6.5 7.1 8.7 9.2 9.2 7.6 8.0 7.5 6.5 6.5 6.5 6.5 6.5 6.5 6.5 6.5 6.5 6.5 6.5 6.5 6.5 6.5 6.5 6.5 6.5 6.5 6.5 6.5 6.5 6.5 6.5 6.5 6.5 6.5 6.5 6.5
6.7 6.6 6.9 6.9 6.9 7.2 7.3 7.5 7.3 7.1 7.1 6.7 7.4 7.6 8.7 8.8 8.0 8.6 6.7 6.5 6.5 6.6 6.5 6.5 6.5 6.5 6.5 6.5 6.5 6.5 6.5 6.5 6.5 6.5 6.7 6.5 6.5 6.5 6.5 6.7 6.6 6.5 6.5 6.5 6.5 6.5 6.5
7.1 5.8 6.0 6.9 7.1 7.0 7.0 7.4 7.3 7.5 7.3 6.8 7.8 6.9 8.8 7.7 8.9 7.6 6.5 6.5 6.5 7.2 7.1 6.5 6.5 6.5 6.5 6.5 6.5 6.5 6.5 6.5 6.5 6.5 6.7 6.5 6.5 6.5 6.5 6.5 6.5 6.5 6.5 6.5 6.5 6.5 6.5
7.1 6.7 6.2 6.6 6.9 6.8 6.7 6.6 7.1 8.0 7.0 6.9 7.0 6.5 8.4 9.7 6.9 6.9 6.5 6.5 6.1 6.7 7.3 6.5 6.5 6.5 6.5 6.5 6.5 6.5 6.5 6.5 7.0 6.8 6.5 6.5 6.5 6.5 6.5 6.5 6.5 6.5 6.5 6.5 6.5 6.5 6.5
6.6 6.9 6.6 5.8 7.5 6.6 6.6 6.8 6.4 7.3 7.3 6.8 6.7 6.5 7.9 8.8 6.5 6.5 6.7 6.5 6.9 6.5 6.5 6.5 6.5 6.5 6.5 6.5 6.5 6.5 6.5 6.8 7.1 6.6 6.5 6.5 6.5 6.5 6.5 6.5 6.5 6.5 6.5 6.5 6.5 6.5 6.5
7.0 6.8 6.7 6.5 7.0 7.1 6.4 6.3 6.4 7.3 7.4 6.6 5.8 6.5 6.7 6.3 8.1 6.6 6.5 6.5 6.5 7.3 6.8 7.0 6.5 6.7 6.5 6.5 6.5 6.5 6.5 6.5 7.1 6.9 6.6 6.7 6.5 6.5 6.5 6.5 6.5 6.5 6.5 6.5 6.5 6.5 6.5
7.2 7.3 6.6 7.2 6.8 7.5 7.4 6.7 6.7 6.7 6.9 5.6 6.5 6.8 7.5 6.5 6.6 6.5 6.6 6.5 6.5 6.5 7.0 7.2 6.5 6.5 6.5 6.5 6.5 6.5 6.5 6.5 6.8 6.4 6.7 6.5 6.5 6.5 6.5 6.5 6.5 6.5 6.5 6.5 6.5 6.5 6.5
7.6 7.8 8.0 7.6 8.5 8.2 8.0 7.5 6.5 6.4 6.1 5.8 6.3 6.9 7.7 7.2 7.4 6.5 6.5 6.5 6.5 6.5 6.5 6.5 6.5 6.5 6.5 6.5 6.5 6.5 6.5 6.5 6.5 6.4 6.5 6.5 6.5 6.5 6.5 6.5 6.5 6.5 6.5 6.5 6.5 6.5 6.5
7.9 7.8 7.9 8.7 8.5 8.5 8.5 7.6 7.1 7.1 6.6 4.5 5.6 7.6 7.7 6.9 6.5 6.5 6.5 6.5 6.5 6.6 6.9 7.2 6.6 6.5 6.5 6.5 7.1 7.3 7.4 7.2 6.7 6.5 6.5 6.5 6.5 6.5 6.5 6.5 6.5 6.5 6.5 6.5 6.5 6.5 6.5
8.6 8.3 8.8 8.5 8.0 8.3 8.5 8.1 7.8 7.4 6.4 4.2 5.4 7.7 7.0 6.5 6.5 6.5 6.5 6.7 6.5 6.6 6.5 7.0 7.3 6.6 7.2 8.3 8.0 7.8 7.5 7.2 7.1 6.7 7.0 6.5 6.5 6.5 6.5 6.5 6.5 6.5 6.5 6.5 6.5 6.5 6.5
8.6 8.6 8.4 8.3 8.1 8.0 7.8 7.5 7.4 7.7 7.6 5.7 6.0 6.6 6.6 6.5 6.8 6.6 6.6 6.4 7.0 7.2 6.6 6.8 7.4 7.8 8.2 7.5 6.5 6.5 6.5 6.5 6.5 6.5 6.5 6.5 6.5 6.5 6.5 6.5 6.5 6.5 6.5 6.5 6.5 6.5 6.5
9.0 8.8 8.5 8.5 8.0 7.9 7.7 7.4 7.6 7.4 7.5 7.2 6.8 7.5 7.5 6.8 6.6 7.5 6.6 7.1 6.5 6.5 6.5 7.0 8.0 8.5 8.0 6.6 6.5 6.5 6.5 6.5 6.5 6.5 6.5 6.5 6.5 6.5 6.5 6.5 6.5 6.5 6.5 7.1 6.5 6.5 6.5
9.3 8.9 8.4 8.4 8.1 8.0 7.8 7.6 7.5 7.5 7.5 5.3 4.1 5.5 6.9 7.2 7.9 7.7 6.7 6.7 7.5 6.9 6.5 6.8 7.2 7.2 7.9 6.5 6.5 6.5 6.5 6.5 6.5 6.5 6.5 6.5 6.5 6.5 6.5 6.5 6.5 6.5 6.6 7.1 6.5 6.5 6.9
9.3 9.0 8.5 8.3 8.2 8.0 7.9 7.8 7.6 7.6 7.8 6.1 5.4 6.1 5.3 6.3 7.8 8.3 8.4 7.6 7.5 7.5 6.5 7.1 6.9 7.0 6.6 6.5 6.5 6.5 6.5 6.5 6.5 6.5 6.5 6.5 6.5 6.5 6.5 6.5 6.5 6.8 6.7 6.5 6.6 7.1 7.2
9.2 8.8 8.5 8.4 8.2 8.0 8.0 8.0 8.0 8.0 7.9 5.8 5.4 5.5 6.3 6.7 7.1 8.7 9.1 9.2 8.9 8.6 7.8 7.6 7.0 6.9 6.9 6.5 6.5 6.5 6.5 6.5 6.5 6.5 6.5 6.5 6.5 6.5 6.5 6.5 6.6 7.2 6.9 7.5 7.7 7.3 7.4
Wind_Speed
20 19 18 17 17 16 14 12 11 9 6 6 5 3 3 4 5 5 6 9 10 12 11 12 15 20 11 6 10 8 2 8 10 9 11 10 8 7 11 3 5 12 10 3 7 8 11
12 16 15 15 12 11 12 11 10 10 9 7 6 5 3 4 4 6 7 8 9 12 9 8 12 19 8 11 3 3 5 7 7 9 6 7 5 5 9 9 8 4 7 10 10 11 11
7 14 14 13 12 7 11 9 8 8 8 8 5 3 3 3 4 5 7 8 9 10 7 6 9 8 10 14 3 5 4 8 4 6 6 3 5 9 3 8 5 10 12 14 14 12 8
5 10 15 12 11 10 10 11 9 7 6 7 5 2 1 3 4 5 6 8 8 6 5 5 8 8 7 2 7 9 10 10 9 7 7 2 7 11 8 3 9 10 12 13 9 8 7
5 8 13 12 11 12 8 6 8 9 8 6 6 2 1 2 4 5 5 8 8 6 3 8 9 2 7 2 5 2 5 3 5 7 7 3 7 10 5 11 10 13 11 14 10 9 4
10 10 13 14 13 13 11 9 8 8 9 8 7 4 1 3 4 5 8 9 6 10 9 9 6 5 6 2 2 2 3 6 4 8 7 8 6 9 11 12 12 12 9 10 9 6 9
17 15 15 17 18 19 16 13 10 11 10 10 10 7 2 3 4 6 11 4 6 7 8 9 2 10 4 3 5 8 7 9 8 12 9 12 8 12 14 10 12 11 14 16 15 11 13
19 20 21 20 20 19 18 18 16 15 12 13 11 7 3 1 3 5 7 6 4 4 10 14 18 17 14 5 7 11 7 9 12 16 15 6 13 16 10 6 10 13 16 17 16 15 9
19 18 18 20 22 21 20 20 19 18 15 16 10 5 2 2 5 5 3 3 4 7 7 10 12 11 9 11 9 14 14 15 16 16 16 15 10 3 7 10 12 15 16 16 17 16 14
21 21 18 18 20 22 23 21 18 17 15 17 13 8 4 4 4 0 4 1 2 2 5 9 7 5 8 8 7 10 6 15 10 16 15 13 12 13 10 14 13 16 11 8 12 12 11
21 22 23 22 21 21 21 20 18 16 18 17 15 12 9 6 5 3 7 3 3 4 5 8 7 6 7 9 6 8 8 12 18 14 8 8 8 9 12 14 8 11 5 10 11 12 15
21 22 23 24 24 24 23 22 21 20 20 20 17 12 8 4 4 4 2 1 4 4 9 7 7 9 9 11 8 7 6 6 8 13 12 15 3 6 9 4 7 5 9 12 12 12 14
18 20 21 23 26 24 24 23 23 23 22 21 19 14 9 2 1 3 3 4 4 9 4 9 8 10 14 10 11 11 11 12 9 8 13 15 15 10 9 9 9 9 10 8 10 11 14
15 20 21 23 25 25 25 25 25 24 21 20 18 14 6 6 4 2 4 4 9 8 23 3 4 10 12 13 12 12 12 12 11 9 4 8 13 17 12 12 7 10 11 10 15 14 14
18 19 21 25 26 27 27 26 25 27 26 24 18 8 6 6 5 2 6 9 11 20 5 4 6 9 10 8 5 13 15 13 10 12 8 6 7 9 6 7 8 9 9 13 16 17 16
16 18 23 24 26 26 28 28 26 29 28 27 7 5 8 10 9 3 6 16 13 13 7 5 14 9 14 14 12 11 11 6 6 5 9 7 13 10 8 7 11 14 13 8 7 8 20
20 15 16 26 26 26 27 28 28 29 31 30 7 4 7 17 8 5 9 21 18 10 5 9 13 15 12 15 9 11 11 9 3 3 6 8 9 14 11 10 15 13 15 15 17 15 16
20 21 16 24 27 22 26 21 25 30 36 21 3 5 11 13 8 7 14 19 13 13 9 10 7 10 13 8 8 10 9 3 3 6 5 1 5 12 18 16 9 12 17 18 12 13 15
10 19 14 21 22 19 23 28 28 28 37 7 5 3 5 11 10 12 15 23 18 10 12 10 11 11 10 13 9 9 12 3 2 3 3 0 7 11 17 16 18 16 17 19 19 17 19
9 9 11 17 20 20 15 16 29 34 38 8 4 5 3 4 13 18 18 18 22 11 13 13 7 9 10 12 11 7 7 3 1 1 5 2 12 17 15 17 17 13 16 14 13 9 16
11 11 10 14 16 20 26 19 14 34 37 7 5 4 8 10 13 18 17 14 23 20 14 12 13 15 13 13 13 15 15 12 15 11 8 5 14 16 18 20 20 20 22 25 23 24 22
13 14 14 16 13 17 21 21 24 20 39 6 5 4 8 11 20 20 17 21 22 19 19 14 16 14 16 17 14 13 13 15 15 8 11 11 16 14 20 20 21 23 26 27 27 28 27
15 16 16 18 14 15 18 18 22 22 22 3 2 5 6 12 19 16 20 22 21 17 14 18 15 13 15 12 8 10 12 12 13 13 11 13 11 12 18 14 16 16 26 24 26 26 25
14 14 16 15 14 16 16 17 21 23 16 2 3 2 4 8 14 20 18 20 19 15 16 14 14 14 10 7 7 11 12 15 18 18 16 17 18 13 16 16 18 20 22 20 14 18 21
15 15 16 16 16 17 17 16 17 19 24 4 5 3 2 10 16 18 21 14 18 17 14 11 10 3 1 8 5 9 11 17 21 22 23 21 18 14 15 17 20 25 23 13 9 24 21
17 17 16 17 17 16 16 16 16 18 18 8 3 7 4 3 11 16 18 18 14 15 14 14 6 3 4 3 7 14 12 11 9 11 24 22 21 14 15 18 21 25 21 15 6 16 17
20 18 18 17 17 18 17 18 17 16 16 5 2 2 3 4 14 16 12 16 16 12 8 10 12 9 10 8 10 12 15 16 17 17 12 9 8 17 17 17 20 25 24 6 10 12 6
21 19 19 18 18 18 18 18 17 17 17 6 3 10 1 2 9 15 20 12 13 12 9 7 8 8 6 8 6 9 9 13 16 20 20 18 15 11 11 14 20 7 6 12 4 1 2
20 20 20 19 19 18 17 17 17 21 16 10 2 8 5 2 3 5 11 10 13 14 11 10 6 4 7 5 6 5 9 6 13 16 17 16 15 13 15 11 5 4 5 4 3 5 0
Wind_Direction
200 185 176 167 164 161 161 160 153 152 156 139 136 109 70 40 20 354 358 335 333 325 332 340 334 323 321 279 282 102 258 233 261 268 271 283 275 266 260 268 266 248 269 215 259 246 255
141 139 138 137 138 155 146 147 150 148 152 142 134 111 68 48 12 353 346 322 319 307 318 337 325 314 274 279 45 349 320 275 267 259 255 250 288 319 289 265 262 7 285 267 255 255 251
135 140 134 134 137 154 133 139 142 143 146 140 128 113 81 20 16 348 329 324 313 298 309 318 318 304 271 260 345 290 265 279 293 304 278 308 294 261 344 245 263 270 265 255 233 241 242
169 158 137 144 149 151 152 150 148 150 164 150 140 117 34 18 352 346 328 320 315 314 276 282 287 294 270 14 315 279 260 248 239 255 275 287 276 276 256 353 241 250 242 266 174 176 156
200 185 152 159 165 163 167 164 156 170 180 174 156 164 327 351 334 325 315 308 282 291 270 252 259 289 277 133 227 70 258 265 192 215 211 240 241 256 193 238 237 213 259 217 181 191 262
200 201 181 179 184 172 175 174 172 197 204 193 181 180 231 312 319 308 299 276 270 268 218 239 255 260 235 252 7 316 190 210 176 165 176 219 231 242 223 246 253 314 236 237 246 182 205
202 204 204 185 187 182 179 186 193 213 213 203 191 190 184 296 312 311 304 224 225 195 212 253 346 276 242 343 218 213 186 214 203 207 224 181 246 237 262 264 273 303 286 279 282 286 282
217 214 212 204 196 192 189 191 197 207 208 195 195 200 176 254 291 295 279 272 10 351 292 256 251 256 262 289 275 227 182 219 207 239 231 197 242 253 270 304 274 266 270 271 274 270 296
221 223 223 221 206 196 195 202 198 197 194 187 192 198 185 283 278 257 265 281 345 318 256 269 233 245 223 197 240 240 194 220 242 244 245 239 271 37 283 246 253 259 265 277 287 303 279
221 219 217 218 211 201 196 200 196 199 195 184 188 191 177 257 262 154 201 148 254 287 275 194 202 187 173 208 236 238 228 247 227 246 252 258 272 250 233 250 264 269 287 308 274 270 275
229 220 216 211 209 206 205 205 194 191 187 189 190 197 183 211 347 234 51 342 157 212 294 101 138 111 161 204 108 172 203 226 236 212 230 221 214 234 240 250 264 268 349 272 275 274 280
227 221 227 214 208 203 204 204 201 196 188 191 194 190 178 193 240 64 358 244 236 211 232 160 141 191 179 203 200 131 173 233 227 245 213 255 127 240 240 195 245 269 265 250 246 253 260
238 228 226 221 212 204 206 202 200 194 187 188 188 179 197 200 179 123 185 205 197 226 116 176 195 185 214 177 182 189 179 188 187 183 209 210 217 209 231 220 196 241 258 277 264 235 253
257 242 234 225 221 211 206 202 199 187 179 185 185 179 209 229 196 183 208 180 221 246 235 70 216 207 207 170 204 198 195 203 222 244 241 213 184 196 178 227 266 210 242 255 283 280 293
269 258 241 230 218 211 205 199 192 183 183 177 170 198 221 201 179 246 215 213 221 237 314 200 198 211 195 198 278 201 221 233 199 207 238 233 222 142 187 210 244 239 246 261 279 284 280
261 269 253 230 224 212 206 199 194 186 178 159 168 203 209 166 171 210 205 235 238 269 305 252 232 222 244 217 202 231 236 216 213 282 273 260 269 200 218 217 242 263 279 282 246 258 261
253 257 272 232 215 213 208 201 193 189 174 168 178 163 165 160 171 192 216 226 229 239 252 254 257 267 263 270 280 247 243 89 200 151 308 266 244 254 260 224 258 246 232 239 263 256 272
247 249 258 249 202 199 202 198 194 189 170 171 178 185 159 162 178 207 229 220 249 240 225 256 280 278 245 230 251 252 261 42 355 31 290 318 291 266 267 266 249 254 255 265 251 269 269
290 243 242 284 187 189 202 203 200 191 169 151 169 120 177 198 199 212 224 224 240 238 236 232 236 237 248 258 254 252 265 57 86 277 320 133 242 267 261 255 248 241 248 261 263 269 266
272 268 249 241 249 201 219 192 200 190 172 146 144 156 168 199 229 215 215 229 222 215 254 245 245 237 225 235 244 250 224 164 182 253 53 315 263 257 267 280 308 293 262 247 262 252 260
248 255 247 260 242 223 193 207 212 192 171 140 188 194 177 181 212 219 221 217 226 222 202 237 234 237 233 241 237 236 238 240 194 182 224 240 255 263 268 272 278 281 284 277 276 269 259
254 249 251 245 244 230 214 197 195 227 167 159 149 193 186 181 194 215 215 231 228 225 223 213 234 247 229 252 245 245 234 228 236 224 219 245 256 272 268 268 269 271 269 266 267 268 272
230 247 250 249 228 232 209 212 208 199 202 80 200 237 211 208 188 194 216 220 233 232 240 234 233 241 252 249 301 314 312 298 286 278 271 271 257 250 262 281 292 279 263 270 271 269 269
249 240 240 236 234 227 223 219 213 205 192 121 208 225 202 210 189 201 207 223 225 221 240 232 231 247 266 336 310 278 263 263 260 253 253 252 251 259 266 270 254 259 270 283 300 293 288
247 244 241 236 231 229 229 226 221 218 198 154 183 190 274 215 204 201 212 214 225 236 218 226 231 139 19 275 279 259 248 251 246 243 239 237 246 252 254 259 263 273 267 277 271 272 276
239 237 239 235 233 233 231 230 227 219 213 214 184 199 197 256 227 231 208 208 215 215 224 225 238 205 244 244 240 241 243 250 247 233 219 227 232 236 244 248 255 257 288 289 317 267 281
236 233 235 233 227 228 229 224 225 218 205 147 160 271 215 201 216 234 215 203 206 187 209 204 204 202 219 226 236 245 247 249 253 255 235 218 229 225 235 249 258 270 274 175 233 273 20
236 229 232 230 225 223 224 224 218 209 202 153 155 197 121 290 228 202 220 200 195 196 196 176 174 212 199 227 239 242 252 249 250 249 251 253 249 229 231 247 261 222 119 216 342 32 106
228 224 228 227 221 219 218 220 216 202 183 146 130 167 191 239 302 277 238 215 208 198 207 168 197 194 210 222 232 280 255 276 264 256 245 242 249 263 260 255 208 198 275 280 286 296 73